Regional Weather Roundup
Issued by NWS New Orleans/Baton Rouge, LA

Home | Current Version | Previous Version | Text Only | Print | Product List | Glossary On
Versions: 1 2 3 4 5 6 7 8 9 10 11 12 13 14 15 16 17 18 19 20 21 22 23 24 25 26 27 28 29 30 31 32 33 34 35 36 37 38 39 40 41 42 43 44 45 46 47 48 49 50
470
ASUS44 KLIX 250005
RWRLIX
NEW ORLEANS REGIONAL WEATHER ROUNDUP
NATIONAL WEATHER SERVICE NEW ORLEANS LA
700 PM CDT THU APR 24 2014

NOTE: "FAIR" INDICATES FEW OR NO CLOUDS BELOW 12,000 FEET WITH NO
      SIGNIFICANT WEATHER AND/OR OBSTRUCTIONS TO VISIBILITY.
      SKY/WX - SKY CONDITION AND SIGNIFICANT WEATHER.
      TMP - AIR TEMPERATURE.     DP    - DEWPOINT TEMPERATURE.
      RH  - RELATIVE HUMIDITY.   PRES  - PRESSURE.
      HI  - HEAT INDEX.          WCI   - WIND CHILL INDEX.

*  THESE STATIONS ARE NOT NWS OR FAA STATIONS AND ARE NOT UNDER
   NWS QUALITY CONTROL.

LAZ038-040-048-061>063-065>067-069-250100-
SOUTHEAST LOUISIANA

CITY           SKY/WX    TMP DP  RH WIND       PRES   REMARKS
N.O. AUDUBON     N/A     76  67  73 MISG        N/A
6HR MIN TEMP:  76; 6HR MAX TEMP:  87;

N.O. INTL ARPT MOCLDY    76  65  68 S12       29.89R
6HR MIN TEMP:  76; 6HR MAX TEMP:  83;

N.O. LAKEFRONT CLEAR     75  65  70 S15       29.90R
6HR MIN TEMP:  75; 6HR MAX TEMP:  82;

N.O. DOWNTOWN* MOCLDY    79  63  57 S10       29.90R
6HR MIN TEMP:  77; 6HR MAX TEMP:  84;

SLIDELL        PTCLDY    76  65  68 S10       29.88R
6HR MIN TEMP:  76; 6HR MAX TEMP:  82;

BATON ROUGE    PTCLDY    78  64  61 SW12      29.86F
6HR MIN TEMP:  78; 6HR MAX TEMP:  85;

BOOTHVILLE     PTCLDY    73  68  84 S12G21    29.89F
6HR MIN TEMP:  73; 6HR MAX TEMP:  76;

BELLE CHASSE   MOCLDY    75  65  70 S13       29.90R
6HR MIN TEMP:  75; 6HR MAX TEMP:  81;

BOGALUSA*        N/A     78  65  62 S10       29.89R
6HR MIN TEMP:  78; 6HR MAX TEMP:  85;

GALLIANO*      CLOUDY    76  66  71 S12G20    29.91R
6HR MIN TEMP:  76; 6HR MAX TEMP:  82;

NEW ROADS*       N/A     77  64  63 S10G26    29.85F
6HR MIN TEMP:  77; 6HR MAX TEMP:  82;

GONZALES*      MOCLDY    77  66  68 SW6       29.88R
6HR MIN TEMP:  77; 6HR MAX TEMP:  83;

HAMMOND*       MOCLDY    79  63  57 S14       29.88S
HOUMA*         MOCLDY    75  64  69 S8        29.91R
PORT FOURCHON* PTCLDY    75  68  78 S10G18    29.92R

$$

MSZ070-080>082-250100-
SOUTHERN MISSISSIPPI

CITY           SKY/WX    TMP DP  RH WIND       PRES   REMARKS
MCCOMB         PTCLDY    77  64  64 S8        29.85F
6HR MIN TEMP:  77; 6HR MAX TEMP:  82;

GULFPORT       PTCLDY    75  65  70 S9        29.88F
6HR MIN TEMP:  75; 6HR MAX TEMP:  79;

BILOXI         PTCLDY    73  66  79 S12       29.88F
6HR MIN TEMP:  73; 6HR MAX TEMP:  78;

PASCAGOULA     PTCLDY    72  64  76 S10       29.89F
6HR MIN TEMP:  72; 6HR MAX TEMP:  79;


$$

COASTAL OBSERVATIONS
LAKE AND NEARSHORE STATIONS

STATION/POSITION TIME  TEMP    WIND        PRES    WAVE
                       AIR SEA DIR/SP/G            HT/PER
                 (UTC) (F)     (DEG/KT/KT) (MB)    (FT/S)
PASCAGOULA       0000   73     160/  8/ 12 1011.9
WAVELAND YACHT   0000   73 78  180/  9/ 14 1011.4
GRAND ISLE       0000   74 72  190/  7/ 13 1012.9
SOUTHWEST PASS   0000   72 62  160/ 11/ 14 1012.9
NEW CANAL        0000   76 73  220/ 12/ 17 1012.8
SHELL BEACH      0000   74 70  170/ 10/ 15 1012.1

OFFSHORE STATIONS

STATION/POSITION TIME  TEMP    WIND        PRES    WAVE
                       AIR SEA DIR/SP/G            HT/PER
                 (UTC) (F)     (DEG/KT/KT) (MB)    (FT/S)

$$




USA.gov is the U.S. government's official web portal to all federal, state and local government web resources and services.